Time,TemperatureF,DewpointF,PressureIn,WindDirection,WindDirectionDegrees,WindSpeedMPH,WindSpeedGustMPH,Humidity,HourlyPrecipIn,Conditions,Clouds,dailyrainin,SolarRadiationWatts/m^2,SoftwareType,DateUTC
2014-08-30 00:00:00,83.8,79.2,30.09,East,80,0.0,0.0,86,0.00,,,0.00,0.0,meteohub,2014-08-30 04:00:00,
2014-08-30 00:01:00,83.8,79.2,30.09,East,80,0.0,0.0,86,0.00,,,0.00,0.0,meteohub,2014-08-30 04:01:00,
2014-08-30 00:02:00,83.7,79.0,30.09,East,80,0.0,0.0,86,0.00,,,0.00,0.0,meteohub,2014-08-30 04:02:00,
2014-08-30 00:07:00,83.7,79.0,30.09,East,80,0.0,0.0,86,0.00,,,0.00,0.0,meteohub,2014-08-30 04:07:00,
2014-08-30 00:12:00,82.8,78.8,30.10,SSE,150,8.0,8.0,88,0.00,,,0.00,0.0,meteohub,2014-08-30 04:12:00,
2014-08-30 00:17:00,81.7,78.4,30.09,South,175,3.0,10.0,90,0.01,,,0.01,0.0,meteohub,2014-08-30 04:17:00,
2014-08-30 00:22:00,81.3,78.1,30.09,South,184,4.0,10.0,90,0.01,,,0.01,0.0,meteohub,2014-08-30 04:22:00,
2014-08-30 00:27:00,81.3,78.1,30.09,South,184,0.0,9.0,90,0.02,,,0.02,0.0,meteohub,2014-08-30 04:27:00,
2014-08-30 00:32:00,81.3,78.1,30.09,South,184,0.0,6.0,90,0.02,,,0.02,0.0,meteohub,2014-08-30 04:32:00,
2014-08-30 00:37:00,81.3,78.4,30.09,ESE,113,0.0,5.0,91,0.03,,,0.02,0.0,meteohub,2014-08-30 04:37:00,
2014-08-30 00:42:00,81.3,78.4,30.09,ESE,113,0.0,3.0,91,0.03,,,0.03,0.0,meteohub,2014-08-30 04:42:00,
2014-08-30 00:47:00,81.3,78.4,30.09,ESE,113,0.0,3.0,91,0.03,,,0.03,0.0,meteohub,2014-08-30 04:47:00,
2014-08-30 00:52:00,81.3,78.8,30.09,ESE,113,0.0,0.0,92,0.04,,,0.03,0.0,meteohub,2014-08-30 04:52:00,
2014-08-30 00:57:00,81.3,78.8,30.09,ESE,113,0.0,0.0,92,0.04,,,0.04,0.0,meteohub,2014-08-30 04:57:00,
2014-08-30 01:02:00,81.3,78.8,30.08,ESE,113,0.0,0.0,92,0.04,,,0.04,0.0,meteohub,2014-08-30 05:02:00,
2014-08-30 01:07:00,81.3,78.8,30.08,ESE,113,0.0,0.0,92,0.04,,,0.04,0.0,meteohub,2014-08-30 05:07:00,
2014-08-30 01:12:00,81.1,78.6,30.08,ESE,113,0.0,0.0,92,0.04,,,0.04,0.0,meteohub,2014-08-30 05:12:00,
2014-08-30 01:17:00,81.3,78.8,30.08,ESE,113,0.0,0.0,92,0.04,,,0.05,0.0,meteohub,2014-08-30 05:17:00,
2014-08-30 01:22:00,81.3,78.8,30.08,ESE,113,0.0,0.0,92,0.04,,,0.05,0.0,meteohub,2014-08-30 05:22:00,
2014-08-30 01:27:00,81.1,78.6,30.08,ESE,113,0.0,0.0,92,0.03,,,0.05,0.0,meteohub,2014-08-30 05:27:00,
2014-08-30 01:32:00,81.1,78.6,30.09,ESE,113,0.0,0.0,92,0.03,,,0.05,0.0,meteohub,2014-08-30 05:32:00,
2014-08-30 01:37:00,81.1,78.6,30.08,ESE,113,0.0,0.0,92,0.02,,,0.05,0.0,meteohub,2014-08-30 05:37:00,
2014-08-30 01:42:00,81.1,78.6,30.09,ESE,113,0.0,0.0,92,0.03,,,0.06,0.0,meteohub,2014-08-30 05:42:00,
2014-08-30 01:47:00,81.1,78.6,30.08,ESE,113,0.0,0.0,92,0.03,,,0.06,0.0,meteohub,2014-08-30 05:47:00,
2014-08-30 01:52:00,81.1,78.6,30.08,ESE,113,0.0,0.0,92,0.02,,,0.06,0.0,meteohub,2014-08-30 05:52:00,
2014-08-30 01:57:00,81.1,79.0,30.08,ESE,113,0.0,0.0,93,0.02,,,0.06,0.0,meteohub,2014-08-30 05:57:00,
2014-08-30 02:02:00,81.0,78.8,30.08,ESE,113,0.0,0.0,93,0.02,,,0.06,0.0,meteohub,2014-08-30 06:02:00,
2014-08-30 02:07:00,81.0,78.8,30.08,NE,35,0.0,0.0,93,0.02,,,0.06,0.0,meteohub,2014-08-30 06:07:00,
2014-08-30 02:12:00,81.0,78.8,30.07,NNW,341,0.0,0.0,93,0.02,,,0.06,0.0,meteohub,2014-08-30 06:12:00,
2014-08-30 02:17:00,80.8,78.6,30.07,NNW,338,0.0,0.0,93,0.01,,,0.06,0.0,meteohub,2014-08-30 06:17:00,
2014-08-30 02:22:00,80.8,78.6,30.07,NNW,338,0.0,0.0,93,0.01,,,0.06,0.0,meteohub,2014-08-30 06:22:00,
2014-08-30 02:27:00,80.8,78.6,30.07,NNW,338,0.0,0.0,93,0.01,,,0.06,0.0,meteohub,2014-08-30 06:27:00,